Location: Unspecified
(0.0000°N, 0.0000°E)
Time: 18:45:19
(UTC+00:00)

TBA - TO BE ASSIGNED - Visible Passes

Search period start: 17 April 2026 00:00
Search period end: 27 April 2026 00:00
Orbit: 482 x 484 km, 43.0° (Epoch: 16 April)

Date Brightness Start Highest point End Pass type
(mag) Time Alt. Az. Time Alt. Az. Time Alt. Az.
17 Apr ? 05:25:29 10° WSW 05:29:07 48° NW 05:32:45 10° NNE visible
18 Apr ? 04:59:39 27° WSW 05:01:22 50° NW 05:05:00 10° NNE visible
19 Apr ? 04:33:51 51° NNW 04:33:51 51° NNW 04:37:13 10° NNE visible
20 Apr ? 04:07:57 22° NNE 04:07:57 22° NNE 04:09:25 10° NNE visible
